Change the Weather History Date:

Wednesday, October 3, 2012

  Actual Average Record
Temperature  
Mean Temperature 88 °F -  
Max Temperature 107 °F 94 °F 107 °F (2012)
Min Temperature 71 °F 67 °F 57 °F (2002)
Cooling Degree Days 24    
Growing Degree Days 38 (Base 50)    
Moisture  
Dew Point 40 °F    
Average Humidity 21    
Maximum Humidity 55    
Minimum Humidity 7    
Precipitation  
Precipitation 0.00 in - - ()
Sea Level Pressure  
Sea Level Pressure 29.86 in    
Wind  
Wind Speed 10 mph (WSW)    
Max Wind Speed 22 mph    
Max Gust Speed 29 mph    
Visibility 10 miles    
Events      
Averages and records for this station are not official NWS values.
T = Trace of Precipitation, MM = Missing Value Source: NWS Daily Summary

Daily Weather History Graph

Daily Weather History Graph

Search for Another Location

Airport or City:

Trip Planner

Search our weather history database for the weather conditions in past years. The results will help you decide how hot, cold, wet, or windy it might be!

Date:

Astronomy

Oct. 03, 2012 Rise Set
Actual Time 6:38 AM PDT 6:23 PM PDT
Civil Twilight 6:13 AM PDT 6:48 PM PDT
Nautical Twilight 5:45 AM PDT 7:17 PM PDT
Astronomical Twilight 5:16 AM PDT 7:45 PM PDT
Moon 8:32 PM PDT (10/3) 9:52 AM PDT (10/3)
Length of Visible Light 12h 34m
Length of Day
11h 45m
Waning Gibbous, 88% of the Moon is Illuminated
Oct 3
Waning Gibbous
Oct 8
Last Quarter
Oct 15
New
Oct 21
First Quarter
Oct 29
Full

Hourly Weather History & Observations

Time (PDT) Temp. Dew Point Humidity Pressure Visibility Wind Dir Wind Speed Gust Speed Precip Events Conditions
12:56 AM 82.0 °F 39.0 °F 22% 29.80 in 10.0 mi WSW 11.5 mph - N/A   Clear
1:56 AM 79.0 °F 37.9 °F 23% 29.80 in 10.0 mi West 11.5 mph - N/A   Clear
2:56 AM 80.1 °F 37.9 °F 22% 29.80 in 10.0 mi West 6.9 mph - N/A   Clear
3:56 AM 78.1 °F 37.0 °F 23% 29.81 in 10.0 mi West 8.1 mph - N/A   Clear
4:56 AM 73.9 °F 43.0 °F 33% 29.82 in 10.0 mi SSW 8.1 mph - N/A   Clear
5:56 AM 71.1 °F 53.1 °F 53% 29.83 in 10.0 mi South 5.8 mph - N/A   Clear
6:56 AM 72.0 °F 55.0 °F 55% 29.85 in 10.0 mi South 4.6 mph - N/A   Clear
7:56 AM 79.0 °F 53.1 °F 40% 29.86 in 10.0 mi South 3.5 mph - N/A   Clear
8:56 AM 88.0 °F 46.0 °F 23% 29.89 in 10.0 mi Calm Calm - N/A   Partly Cloudy
9:56 AM 95.0 °F 39.9 °F 15% 29.89 in 10.0 mi Calm Calm - N/A   Clear
10:56 AM 100.0 °F 41.0 °F 13% 29.89 in 10.0 mi Calm Calm - N/A   Clear
11:56 AM 105.1 °F 28.9 °F 7% 29.88 in 10.0 mi WNW 8.1 mph - N/A   Clear
12:56 PM 106.0 °F 28.9 °F 7% 29.86 in 10.0 mi West 13.8 mph 20.7 mph N/A   Partly Cloudy
1:56 PM 106.0 °F 30.9 °F 7% 29.84 in 10.0 mi SW 16.1 mph 23.0 mph N/A   Partly Cloudy
2:56 PM 106.0 °F 30.9 °F 7% 29.84 in 10.0 mi WSW 20.7 mph 25.3 mph N/A   Partly Cloudy
3:56 PM 104.0 °F 33.1 °F 9% 29.84 in 10.0 mi WSW 17.3 mph - N/A   Partly Cloudy
4:56 PM 102.0 °F 32.0 °F 9% 29.85 in 10.0 mi WSW 21.9 mph 28.8 mph N/A   Partly Cloudy
5:56 PM 98.1 °F 33.1 °F 10% 29.85 in 10.0 mi West 17.3 mph 26.5 mph N/A   Clear
6:56 PM 93.9 °F 34.0 °F 12% 29.86 in 10.0 mi WSW 16.1 mph - N/A   Partly Cloudy
7:56 PM 90.0 °F 42.1 °F 19% 29.88 in 10.0 mi WSW 18.4 mph - N/A   Partly Cloudy
8:56 PM 89.1 °F 44.1 °F 21% 29.91 in 10.0 mi WSW 19.6 mph 26.5 mph N/A   Clear
9:56 PM 84.9 °F 45.0 °F 25% 29.92 in 10.0 mi WNW 10.4 mph - N/A   Partly Cloudy
10:56 PM 84.0 °F 46.0 °F 26% 29.93 in 10.0 mi West 11.5 mph - N/A   Partly Cloudy
11:56 PM 84.9 °F 45.0 °F 25% 29.93 in 10.0 mi WSW 17.3 mph - N/A   Clear